#timestamp,LO_Frequency,Hit,StdDev 
1457276415.6,286047000.1,N
1457276435.4,286047002.3,N
1457276455.2,286047000.6,N
1457276475.0,286047000.5,N
1457276476.0,286047000.5,N
1457276495.8,286046998.3,N
1457276515.6,286047000.0,N
1457276535.4,286046998.5,N
1457276555.3,286047000.0,N
1457276575.1,286047000.4,N
1457276595.8,286046999.4,N
1457276615.7,286046999.2,N
1457276635.5,286046995.9,N
1457276655.3,286046995.1,N
1457276675.2,286046995.2,N
1457276695.9,286046996.4,N
1457276715.7,286046994.1,N
1457276735.6,286046992.7,N
1457276755.4,286046988.5,Y
1457276775.2,286046992.5,P
1457276795.1,286046993.4,N
1457276796.0,286046993.4,N
1457276815.8,286046996.3,N
1457276835.6,286046993.7,N
1457276855.5,286046996.3,N
1457276875.3,286046994.9,N
1457276895.1,286046993.5,N
1457276915.8,286046993.4,N
1457276935.7,286046993.9,N
1457276955.5,286046997.3,N
1457276975.3,286046995.2,N
1457276995.2,286046997.2,N
1457277015.9,286046998.6,N
1457277035.7,286046998.8,N
1457277055.6,286047001.0,N
1457277075.4,286047000.7,N
1457277095.2,286046998.0,N
1457277115.1,286046994.1,N
1457277116.0,286046994.1,N
1457277135.8,286046995.3,N
1457277155.6,286046995.9,N
1457277175.5,286046996.6,N
1457277195.3,286046999.1,N
1457277215.1,286046999.4,N
1457277235.9,286046999.1,N
1457277255.7,286046998.8,N
1457277275.5,286046997.7,N
1457277295.3,286046997.5,N
1457277315.2,286046998.8,N
1457277335.0,286046999.6,N
1457277335.9,286046999.6,N
1457277355.7,286046995.7,N
1457277375.6,286046994.5,N
1457277395.4,286046996.1,N
1457277415.2,286046995.4,N
1457277435.1,286046999.5,N
1457277436.0,286046999.5,N
1457277455.8,286046996.9,N
1457277475.6,286046999.1,N
1457277495.5,286046995.0,N
1457277515.3,286046993.6,Y
1457277535.1,286046997.6,P
1457277555.9,286046995.0,P
1457277575.7,286046996.6,N
1457277595.5,286046996.7,Y
1457277615.4,286047003.6,P
1457277635.2,286047003.7,N
1457277655.0,286047001.6,N
1457277655.9,286047001.6,N
1457277675.8,286047001.8,N
1457277695.6,286047001.2,N
1457277715.4,286046999.9,N
1457277735.3,286046998.1,N
1457277755.1,286046999.5,N
1457277756.0,286046999.5,N
1457277775.8,286046993.9,N
1457277795.7,286046993.5,N
1457277815.5,286046994.5,N
1457277835.3,286046994.2,N
1457277855.2,286046996.4,N
1457277875.9,286046996.2,N
1457277895.7,286046992.1,N
1457277915.6,286046989.2,Y
1457277935.4,286046990.3,P
1457277955.2,286046990.4,N
1457277975.0,286046991.8,N
1457277976.0,286046991.8,N
1457277995.8,286046993.8,N
1457278015.6,286046993.6,N
1457278035.5,286046992.1,Y
1457278055.3,286047001.2,P
1457278075.1,286046998.6,N
1457278095.8,286046996.9,N
1457278115.7,286046998.9,N
1457278135.5,286046998.1,N
1457278155.3,286047004.3,N
1457278175.2,286046998.6,N
1457278195.9,286047000.6,N
1457278215.7,286046998.1,N
1457278235.6,286047000.6,N
1457278255.4,286047000.3,N
1457278275.2,286047001.0,N
1457278295.1,286046998.8,N
1457278296.0,286046998.8,N
1457278315.8,286046996.6,N
1457278335.6,286046999.8,N
1457278355.5,286046998.4,N
1457278375.3,286046994.9,N
1457278395.1,286046995.7,N
1457278415.8,286046996.0,N
1457278435.7,286046995.9,N
1457278455.5,286046994.2,N
1457278475.3,286046990.4,Y
1457278495.2,286046999.4,P
1457278515.0,286047002.3,P
1457278515.9,286047002.3,N
1457278535.7,286047002.8,N
1457278555.6,286047000.4,N
1457278575.4,286047000.4,N
1457278595.2,286046999.9,N
1457278615.1,286047002.3,N
1457278616.0,286047002.3,N
1457278635.8,286047000.0,N
1457278655.6,286047002.7,N
1457278675.5,286047002.4,N
1457278695.3,286047002.7,N
1457278715.1,286047002.7,N
1457278735.9,286047004.0,N
1457278755.7,286047004.4,N
1457278775.5,286047003.4,N
1457278795.4,286047007.3,Y
1457278815.2,286047005.2,P
1457278835.0,286047003.4,N
1457278835.9,286047003.4,N
1457278855.8,286047004.8,Y
1457278875.6,286047000.5,P
1457278895.4,286046996.9,N
1457278915.3,286046995.4,N
1457278935.1,286046995.8,N
1457278936.0,286046995.8,N
1457278955.8,286046995.2,N
1457278975.7,286046996.6,N
1457278995.5,286046997.2,N
1457279015.3,286046995.6,N
1457279035.1,286046995.1,N
1457279055.9,286046991.8,Y
1457279075.7,286046993.9,P
1457279095.6,286046994.8,P
1457279115.4,286046992.8,P
1457279135.2,286046994.3,Y
1457279155.1,286046999.1,P
1457279156.0,286046999.1,N
1457279175.8,286046998.6,N
1457279195.6,286046999.6,N
1457279215.4,286047000.5,N
1457279235.3,286046998.8,N
1457279255.1,286046998.2,N
1457279275.8,286047000.4,N
1457279295.7,286047000.6,N
1457279315.5,286046999.7,N
1457279335.3,286047002.7,N
1457279355.2,286047000.2,N
1457279375.9,286047002.4,N
1457279395.7,286047003.8,N
1457279415.6,286047005.1,N
1457279435.4,286047003.4,N
1457279455.2,286047002.9,N
1457279475.1,286047003.4,N
1457279476.0,286047003.4,N
1457279495.8,286047003.3,N
1457279515.6,286047006.0,N
1457279535.5,286047008.7,Y
1457279555.3,286047010.7,P
1457279575.1,286047006.4,N
1457279595.9,286047009.4,N
1457279615.7,286047011.7,Y
1457279635.5,286047005.3,P
1457279655.4,286047005.1,P
1457279675.2,286047009.0,P
1457279695.0,286047010.6,Y
1457279695.9,286047010.6,P
1457279715.8,286047004.2,N
1457279735.6,286047005.2,N
1457279755.4,286047007.5,Y
1457279775.3,286047002.8,P
1457279795.1,286047002.3,N
1457279796.0,286047002.3,N
1457279815.8,286047002.5,N
1457279835.7,286047001.2,N
1457279855.5,286047000.9,N
1457279875.3,286046996.6,N
1457279895.2,286046999.0,N
1457279915.9,286046996.5,N
1457279935.7,286046995.8,N
1457279955.5,286046995.5,N
1457279975.4,286046997.5,N
1457279995.2,286046995.3,N
